Location: Unspecified
(0.0000°N, 0.0000°E)
Time: 20:33:30
(UTC+00:00)

Vanguard 2 Rocket - Visible Passes

Search period start: 20 May 2025 00:00
Search period end: 30 May 2025 00:00
Orbit: 554 x 3293 km, 32.9° (Epoch: 20 May)

Date Brightness Start Highest point End Pass type
(mag) Time Alt. Az. Time Alt. Az. Time Alt. Az.
20 May 9.2 05:32:47 10° N 05:35:43 15° NNE 05:38:12 10° ENE visible
20 May 9.6 18:56:42 10° SW 19:14:53 90° NW 19:34:36 10° NE visible
20 May 10.2 21:15:33 10° W 21:33:45 42° NW 21:49:15 10° NNE visible
20 May 10.7 23:44:24 10° NW 23:53:21 16° NNW 00:00:42 10° N visible
21 May 9.6 17:51:44 10° SW 18:07:57 70° SE 18:28:07 10° ENE visible
21 May 10.0 20:07:57 10° WSW 20:26:37 56° NW 20:44:36 10° NE visible
21 May 10.6 22:32:10 10° WNW 22:46:11 23° NNW 22:57:36 10° NNE visible
22 May 9.8 19:01:41 10° WSW 19:19:27 74° NW 19:39:12 10° NE visible
22 May 10.5 21:22:01 10° W 21:38:52 33° NNW 21:53:36 10° NNE visible
22 May 10.7 23:52:58 10° NW 23:59:39 13° NNW 00:05:24 10° N visible
23 May 9.2 04:32:15 10° NNW 04:36:55 18° NNE 04:40:26 10° ENE visible
23 May 9.6 17:56:29 10° SW 18:12:28 86° SE 18:32:58 10° NE visible
23 May 10.3 20:13:45 10° W 20:31:29 45° NNW 20:48:56 10° NE visible
23 May 10.8 22:40:05 10° WNW 22:52:07 19° NNW 23:02:10 10° NNE visible
24 May 9.8 03:27:50 10° NNW 03:31:59 14° NNE 03:35:18 10° NE visible
24 May 10.0 19:07:00 10° WSW 19:24:09 59° NW 19:43:35 10° NE visible
24 May 10.7 21:29:06 10° WNW 21:44:23 27° NNW 21:58:00 10° NNE visible
25 May 10.7 00:00:44 10° NNW 00:06:16 12° N 00:11:06 10° N visible
25 May 10.2 02:22:41 10° NNW 02:26:25 12° N 02:29:34 10° NNE visible
25 May 8.4 04:35:57 10° NW 04:42:34 32° NNE 04:46:58 10° E visible
25 May 9.8 18:01:29 10° WSW 18:17:04 77° NW 18:37:31 10° NE visible
25 May 10.6 20:20:04 10° W 20:36:41 36° NNW 20:53:13 10° NNE visible
25 May 10.8 22:48:13 10° NW 22:58:28 16° NNW 23:07:11 10° NNE visible
26 May 10.5 01:15:54 10° NNW 01:20:06 12° N 01:23:44 10° NNE visible
26 May 9.2 03:30:56 10° NNW 03:37:53 23° NNE 03:42:39 10° ENE visible
26 May 10.4 19:12:45 10° W 19:29:06 47° NNW 19:47:50 10° NE visible
26 May 10.9 21:36:43 10° WNW 21:50:22 22° NNW 22:02:38 10° NNE visible
27 May 10.7 00:06:45 10° NNW 00:12:59 13° N 00:18:18 10° NNE visible
27 May 9.8 02:25:25 10° NNW 02:32:34 18° NNE 02:37:46 10° ENE visible
27 May 7.4 04:40:12 10° NW 04:48:00 59° NNE 04:52:46 10° ESE visible
27 May 10.0 18:06:48 10° WSW 18:21:52 61° NNW 18:41:49 10° NE visible
27 May 10.8 20:26:56 10° WNW 20:42:16 29° NNW 20:57:34 10° NNE visible
27 May 10.8 22:55:50 10° NW 23:05:08 15° N 23:13:04 10° NNE visible
28 May 10.3 01:19:04 10° NNW 01:26:32 16° N 01:32:16 10° NE visible
28 May 8.6 03:34:42 10° NW 03:43:34 37° NNE 03:49:01 10° E visible
28 May 10.6 19:18:58 10° W 19:34:24 37° NNW 19:52:01 10° NE visible
28 May 10.9 21:44:34 10° NW 21:56:46 19° NNW 22:07:44 10° NNE visible
29 May 10.6 00:11:26 10° NNW 00:19:39 15° N 00:26:15 10° NE visible
29 May 9.4 02:28:52 10° NNW 02:38:30 27° NNE 02:44:43 10° ENE visible
29 May 6.8 04:44:53 10° WNW 04:53:09 80° SW 04:58:04 10° SE visible
29 May 10.4 18:12:31 10° W 18:26:56 48° NNW 18:45:58 10° NE visible
29 May 11.0 20:34:20 10° WNW 20:48:18 23° NNW 21:02:10 10° NNE visible
29 May 10.8 23:02:18 10° NNW 23:11:55 16° N 23:19:59 10° NNE visible
